Location: New Canada
(47.1017°N, 68.5042°W)
Time: 16:54:50
(UTC+00:00)

RS-44 - Pass Details

Date: 18 April 2024
Orbit: 1174 x 1511 km, 82.5° (Epoch: 20 May)

Event Time Altitude Azimuth Distance (km) Brightness Sun altitude
Rises 03:42:13 0° 264° (W) 4,631 ? -30.8°
Reaches altitude 10° 03:48:14 10° 295° (WNW) 3,607 ? -31.0°
Maximum altitude 03:50:50 11° 313° (NW) 3,465 ? -31.1°
Drops below altitude 10° 03:53:24 10° 331° (NNW) 3,551 ? -31.2°
Sets 03:59:14 0° 3° (N) 4,446 ? -31.4°
